User: anonymous   Login
Location: Banksville Park
(38.5557°N, 75.1182°W)
Time: 03:06:39
(UTC+00:00)
Language:

ERS-2 - Orbit

View from above orbital plane
View from above orbital plane
View from above satellite
View from above satellite

Ground track
Ground track

The orbit data is extracted from the following two-line orbital elements,

1 23560U 95021A   20332.53122269 +.00001973 +00000-0 +86555-4 0  9996
2 23560 098.5534 148.5409 0003187 356.7216 003.3996 15.23454443366945
Epoch (UTC): 27 November 2020 12:44:57
Eccentricity: 0.0003187
inclination: 98.5534°
perigee height: 493 km
apogee height: 497 km
right ascension of ascending node: 148.5409°
argument of perigee: 356.7216°
revolutions per day: 15.23454443
mean anomaly at epoch: 3.3996°
orbit number at epoch: 36694

The dashed part of the orbit path shows where the satellite is in the earth's shadow,  

DLR